Location: Peney-le-Jorat
(46.6338°N, 6.7263°E)
Time: 19:18:28
(UTC+00:00)

Daily predictions for brighter satellites

Satellite Brightness Start Highest point End
(mag) Time Altitude Azimuth Time Altitude Azimuth Time Altitude Azimuth
Cosmos 2333 Rocket 2.8 17:47:54 10° S 17:53:03 37° ESE 17:58:16 10° NE
Cosmos 1939 Rocket 4.3 17:50:25 10° S 17:54:06 43° W 17:57:49 10° NNW
Cosmos 1295 Rocket 4.5 17:48:43 10° S 17:54:54 71° E 18:01:02 10° NNE
Meteor 2-4 Rocket 3.9 17:52:43 10° N 17:58:36 68° ENE 18:04:30 10° SSE
Cosmos 2322 Rocket 3.0 17:53:38 10° SW 17:59:08 56° WNW 18:04:41 10° NNE
Helios 1A Rocket 3.6 17:56:12 10° SE 17:59:51 34° ENE 18:03:31 10° N
Lacrosse 4 Rocket 2.0 17:56:12 10° S 18:00:17 39° ESE 18:04:28 10° NE
CZ-2D R/B 4.0 17:57:08 10° S 18:00:52 57° W 18:04:40 10° NNW
Nadezhda 3 Rocket 4.2 17:54:52 10° N 18:01:18 86° W 18:07:39 10° S
GP-B 3.6 17:57:33 10° SSE 18:01:39 38° E 18:05:47 10° NNE
ARGOS 3.3 17:58:44 10° SE 18:04:00 55° ENE 18:09:18 10° N
Cosmos 1869 Rocket 4.2 18:04:12 10° SSE 18:08:05 32° E 18:12:00 10° NNE
CZ-4 R/B 1.3 18:05:30 10° SSE 18:09:22 88° ENE 18:13:21 10° NNW
Cosmos 2219 Rocket 2.5 18:04:15 10° S 18:09:30 43° ESE 18:14:47 10° NE
CZ-4B R/B 2.0 18:07:35 10° N 18:10:37 55° WNW 18:13:40 10° SSW
Cosmos 2154 Rocket 4.3 18:06:02 10° SSW 18:12:13 75° W 18:18:27 10° N
FALCON 9 DEB 3.3 18:11:04 10° NW 18:14:09 48° NNE 18:16:47 13° E
ERS-2 2.4 18:11:39 10° NNE 18:15:11 46° E 18:18:43 10° S
CZ-2C R/B 3.0 18:10:25 10° NNE 18:15:34 42° E 18:20:35 10° SSE
Cosmos 1238 Rocket 4.0 18:13:24 10° SE 18:16:15 19° E 18:18:49 10° NE
Cosmos 1689 Rocket 2.1 18:13:57 10° NNE 18:16:46 48° E 18:19:34 10° S
Cosmos 1378 4.1 18:15:38 10° NNE 18:18:49 26° ENE 18:21:59 10° SE
SL-08 RB Rocket 3.9 18:14:32 10° SE 18:18:55 49° ENE 18:23:22 10° N
USA 305 3.9 18:15:14 10° NW 18:19:13 36° NNE 18:22:40 13° E
H-2A R/B 4.4 18:17:35 10° N 18:21:00 26° WNW 18:24:26 10° WSW
NOSS 3-2 (A) 4.0 18:17:10 10° S 18:22:01 32° ESE 18:27:25 10° NE
CREW DRAGON DEMO-1 DEB 3.3 18:19:31 10° SW 18:22:09 38° SE 18:23:59 17° E
HJ-1C 3.2 18:20:11 10° SSE 18:23:28 71° ENE 18:26:46 10° N
FALCON 9 DEB 3.4 18:20:31 10° NW 18:23:37 48° NNE 18:25:51 17° E
COSMOS 2428 2.9 18:18:49 10° S 18:24:13 47° ESE 18:29:40 10° NE
Cosmos 1733 Rocket 4.5 18:22:46 10° SE 18:25:34 17° E 18:28:23 10° NE
SL-16 R/B 4.1 18:22:45 10° WSW 18:27:42 30° NW 18:32:42 10° N
USA 307 3.7 18:29:00 10° NW 18:33:03 38° NNE 18:35:52 17° ENE
SL-8 Rocket 3.9 18:27:13 10° S 18:33:22 68° E 18:39:31 10° NNE
CENTAUR R/B 3.3 18:29:04 10° SSE 18:33:49 27° ESE 18:39:13 10° NE
USA 306 3.7 18:30:16 10° NW 18:34:20 39° NNE 18:37:06 18° E
ATLAS CENTAUR R/B 3.2 18:32:33 10° W 18:35:39 25° NW 18:38:49 10° NNE
Cosmos 1066 Rocket 4.4 18:31:37 10° N 18:37:18 55° ENE 18:43:01 10° SSE
Cosmos 1743 3.8 18:36:56 10° SE 18:40:03 23° E 18:43:11 10° NE
Cosmos 1666 2.8 18:38:03 10° SSW 18:41:45 74° W 18:45:31 10° N
Cosmos 1703 Rocket 4.2 18:39:18 10° NNW 18:43:37 58° W 18:47:52 10° S
USA 308 3.6 18:39:50 10° NW 18:43:54 41° NNE 18:46:15 22° ENE
CSL-04 Rocket 3.7 18:39:25 10° SSE 18:44:58 89° W 18:50:29 10° NNW
Cosmos 2322 3.8 18:39:23 10° SSW 18:45:07 82° WNW 18:50:53 10° NNE
Cosmos 1844 Rocket 4.3 18:42:35 10° NW 18:47:36 35° WSW 18:52:35 10° S
Meteor 1-23 Rocket 4.4 18:42:14 10° N 18:47:43 51° ENE 18:53:13 10° SSE
Okean-O 3.8 18:43:57 10° S 18:48:13 46° W 18:52:31 10° NNW
BREEZE-M DEB (TANK) 3.1 18:47:18 10° SW 18:49:32 40° SSE 18:50:06 34° ESE
Cosmos 2366 rocket 4.0 18:45:18 10° S 18:51:37 76° E 18:57:59 10° NNE
ASTEX 1 3.6 18:47:13 10° NNE 18:51:54 44° E 18:56:33 10° SSE
Cosmos 1777 Rocket 4.5 18:47:06 10° NNW 18:52:17 63° WSW 18:57:25 10° S
H-2A R/B 3.4 18:47:07 10° S 18:52:18 44° W 18:57:29 10° NNW
CSL-04 Debris 4.4 18:47:09 10° S 18:52:35 73° WSW 18:58:06 10° NNW
SJ-6B 3.1 18:52:44 21° SE 18:55:08 45° ENE 18:58:58 10° N
Ariane Rocket 3.3 18:55:34 20° SE 18:58:44 44° ENE 19:03:34 10° N
Cosmos 2221 Rocket 3.7 18:54:48 10° N 18:59:10 53° ENE 19:02:10 19° SSE
USA 186 1.1 18:59:36 60° NE 18:59:36 60° NE 19:02:02 10° N
Cosmos 1763 Rocket 4.3 18:57:13 10° SSE 19:01:43 29° E 19:06:15 10° NE
OBJECT-B 1.2 19:02:09 41° ENE 19:02:09 41° ENE 19:05:08 10° N
NOSS 3-2 (C) 3.8 18:58:37 10° S 19:03:40 37° ESE 19:08:10 15° NE
Meteor 1-11 Rocket 3.7 18:59:55 10° SSW 19:05:36 85° W 19:11:13 10° N
Cosmos 1378 Rocket 4.4 19:05:33 10° N 19:09:21 31° ENE 19:09:21 31° ENE
Cosmos 2360 Rocket 4.0 19:04:50 10° WSW 19:09:49 31° NW 19:14:50 10° NNE
Cosmos 468 Rocket 4.4 19:08:28 10° S 19:13:20 38° ESE 19:18:12 10° NE
FALCON 9 DEB 2.9 19:10:17 10° WNW 19:13:28 72° SSW 19:13:45 65° SSE
Cosmos 1943 Rocket 3.7 19:10:34 10° N 19:14:37 19° NE 19:15:25 19° NE
Cosmos 1821 Rocket 4.1 19:09:54 10° SSE 19:15:52 51° E 19:21:48 10° NNE
Cosmos 2237 Rocket 2.4 19:11:11 10° S 19:16:37 48° ESE 19:22:04 10° NE
SJ 16-02 1.3 19:12:21 10° NNW 19:16:48 86° WSW 19:19:19 25° SSE
Cosmos 1727 Rocket 3.9 19:10:56 10° N 19:17:10 87° E 19:23:24 10° S
Cosmos 1544 2.9 19:14:07 10° S 19:17:43 69° E 19:21:24 10° NNE
DMSP B5D2-2 4.0 19:12:45 10° NNE 19:18:00 88° WNW 19:23:12 10° SSW
Cosmos 2278 Rocket 2.1 19:13:20 10° NNW 19:19:02 81° ENE 19:22:11 28° SSE
MOS 1 4.2 19:15:42 21° SSE 19:19:33 68° ENE 19:25:12 10° N
Cosmos 1536 3.3 19:16:12 10° SSW 19:20:09 59° W 19:24:06 10° N
Okean 3 4.4 19:16:49 10° NNW 19:20:57 48° W 19:25:05 10° SSW
FALCON 9 DEB 3.3 19:18:12 10° WNW 19:21:19 54° SW 19:21:22 54° SSW
USA 81 4.0 19:16:32 10° SSE 19:21:40 56° E 19:26:49 10° NNE
SL-4 R/B 3.4 19:19:01 10° W 19:21:51 23° SW 19:22:57 20° SSW
SeaSat 1 2.5 19:19:47 10° NNE 19:24:45 83° WNW 19:29:41 10° SSW
SPOT 3 Rocket 4.0 19:24:25 39° E 19:24:53 39° ENE 19:29:44 10° N
Abrixas rocket 4.0 19:25:31 10° W 19:26:46 20° WSW 19:26:46 20° WSW
MetOp-A 4.4 19:24:11 10° S 19:29:30 68° WSW 19:34:52 10° NNW
Cosmos 1934 Rocket 4.4 19:30:06 37° E 19:30:06 37° E 19:35:24 10° NNE
Resurs 01 Rocket 2.4 19:31:41 35° NE 19:31:41 35° NE 19:34:58 10° N
SME Rocket 3.8 19:25:16 10° NNE 19:32:38 85° ESE 19:37:27 10° SSW
Meteor 2-20 Rocket 4.3 19:27:08 10° N 19:33:16 78° E 19:37:10 24° SSE
USA 234 3.3 19:33:09 35° E 19:35:43 52° SE 19:42:04 10° SSW
Gbstr 26 Del rocket 3.4 19:32:16 10° WNW 19:37:05 82° NNE 19:38:19 55° ESE
Cosmos 2333 Rocket 3.5 19:31:56 10° WSW 19:37:17 40° NW 19:42:41 10° NNE
Lacrosse 4 Rocket 3.5 19:35:10 10° WSW 19:39:04 29° NW 19:43:02 10° NNE
Cosmos 1937 Rocket 3.6 19:34:43 10° NNW 19:39:46 51° ENE 19:39:49 51° ENE
Cosmos 2123 Rocket 4.1 19:34:15 10° N 19:40:19 50° ENE 19:41:01 47° E
USA 238 DEB 3.5 19:36:52 10° SW 19:43:26 88° SE 19:50:22 10° NE
USA 238 3.5 19:36:59 10° SW 19:43:33 87° SE 19:50:29 10° NE
Resurs 1-3 3.4 19:45:27 83° SE 19:45:36 88° ENE 19:50:02 10° NNW
DELTA 2 R/B (1) 4.1 19:41:14 10° WSW 19:46:24 41° S 19:46:36 41° S
IRS-1A Rocket 4.4 19:46:16 24° S 19:49:45 70° WSW 19:55:17 10° NNW
Cosmos 2219 Rocket 3.8 19:48:30 10° WSW 19:53:34 34° NW 19:58:41 10° NNE
CZ-2C R/B 4.5 19:51:00 10° N 19:55:42 30° WNW 20:00:17 10° WSW
Terra 4.3 20:00:53 11° NNE 20:00:53 11° NNE 20:01:05 10° NNE
USA 305 3.4 19:55:14 10° WNW 19:58:46 59° WNW 19:58:46 59° WNW
Cosmos 1980 3.7 19:55:41 10° SSW 20:01:20 77° WNW 20:07:01 10° NNE
Cosmos 1733 Rocket 3.9 19:58:45 10° SSW 20:02:57 48° WNW 20:07:13 10° N
COSMOS 2428 4.4 20:03:37 10° WSW 20:08:41 32° NW 20:13:48 10° NNE
Meteor 2-9 Rocket 4.5 20:10:29 53° NNE 20:10:29 53° NNE 20:14:31 10° NNE
NOSS 3-2 (A) 4.0 20:06:50 10° WSW 20:12:27 55° NW 20:18:58 10° NE
USA 307 4.0 20:09:02 10° WNW 20:12:00 42° WNW 20:12:00 42° WNW
USA 306 4.1 20:10:17 10° WNW 20:13:13 41° WNW 20:13:13 41° WNW
Cosmos 1898 Rocket 3.9 20:14:11 10° NNW 20:19:18 56° WSW 20:19:30 56° WSW
Cosmos 2369 Rocket 3.6 20:14:34 10° N 20:18:00 26° NNE 20:18:00 26° NNE
CENTAUR R/B 2.8 20:17:48 10° SW 20:23:45 68° NW 20:30:56 10° NE
USA 308 4.5 20:19:52 10° WNW 20:22:24 33° WNW 20:22:24 33° WNW
OBJECT-B 4.2 20:35:13 11° WNW 20:35:13 11° WNW 20:35:44 10° WNW
Cosmos 2297 4.4 20:40:21 10° NNW 20:44:37 51° NW 20:44:37 51° NW
NOSS 3-2 (C) 4.2 20:48:45 10° WSW 20:54:20 49° NW 20:55:56 40° N
Cosmos 1943 Rocket 3.3 20:53:29 10° NNW 20:56:58 39° NNW 20:56:58 39° NNW
Cosmos 2237 Rocket 3.8 20:55:47 10° WSW 21:00:53 32° NW 21:06:00 10° NNE
Resurs 01 Rocket 4.2 21:09:14 18° WNW 21:09:14 18° WNW 21:11:01 10° NW
USA 234 4.0 21:20:31 47° W 21:20:31 47° W 21:25:14 10° WSW
CENTAUR R/B 4.5 22:10:26 10° WNW 22:15:54 26° NNW 22:22:09 10° NE
